Regional Weather Roundup
Issued by NWS Kansas City/Pleasant Hill, MO

Home | Current Version | Previous Version | Text Only | Print | Product List | Glossary On
Versions: 1 2 3 4 5 6 7 8 9 10 11 12 13 14 15 16 17 18 19 20 21 22 23 24 25 26 27
000
ASUS43 KEAX 191710
RWREAX

WEATHER ROUNDUP FOR EASTERN KANSAS AND NORTHWEST MISSOURI
NATIONAL WEATHER SERVICE KANSAS CITY/PLEASANT HILL MO
1200 PM CDT THU APR 19 2018

KSZ040-057-103>105-MOZ028-029-037-043-191800-
...KANSAS CITY METROPOLITAN AREA...

CITY           SKY/WX    TMP DP  RH WIND       PRES   REMARKS
K.C. INTL      MOSUNNY   51  30  44 N10       30.46R
K.C. DOWNTOWN  MOSUNNY   50  30  46 NW10      30.46S
LEES SUMMIT    SUNNY     49  31  49 N10       30.46R
OLATHE - IXD   SUNNY     49  31  49 N12       30.47S
OLATHE - OJC   MOSUNNY   48  31  51 NW8       30.46S
LAWRENCE       SUNNY     52  30  43 NE6       30.48R

$$

MOZ001>008-011>017-020>025-030>033-038>040-044>046-053-054-191800-
...NORTHERN AND CENTRAL MISSOURI...

CITY           SKY/WX    TMP DP  RH WIND       PRES   REMARKS
ST. JOSEPH     SUNNY     51  30  44 N13G18    30.48R
MOSBY          MOSUNNY   48  30  49 N5        30.47R
WARRENSBURG    MOSUNNY   50  30  46 N9        30.46R
WHITEMAN AFB   MOSUNNY   48  29  49 N8        30.41
CLINTON        MOSUNNY   48  28  46 N13       30.46R
SEDALIA        MOSUNNY   50  32  50 N9G18     30.46R
WARSAW         NOT AVBL
CHILLICOTHE      N/A     49  32  52 NE8       30.46S
KIRKSVILLE     MOSUNNY   49  31  49 NE10      30.45R

$$

MOZ041-047>049-056>058-063>065-088>090-097-191800-
...EASTERN AND SOUTHERN MISSOURI...

CITY           SKY/WX    TMP DP  RH WIND       PRES   REMARKS
ST. LOUIS INTL CLOUDY    44  33  65 N12       30.42R
SPIRIT OF STL  CLOUDY    46  31  55 N8G21     30.42R
COLUMBIA       MOSUNNY   48  28  46 NE10G17   30.43R
JEFFERSON CITY PTSUNNY   46  27  47 N9        30.44R
ROLLA          PTSUNNY   45  27  49 N9        30.41R
OSAGE BEACH    PTSUNNY   47  28  47 N10G21    30.44R
SPRINGFIELD    MOSUNNY   47  29  49 NW9G22    30.41R
BRANSON        MOSUNNY   46  27  46 NW8G20    30.40
JOPLIN         SUNNY     48  30  49 N8G18     30.45R
WEST PLAINS    MOSUNNY   47  27  45 N8G21     30.39R

$$

IAZ060-094-KSZ022-034>040-054-083-096-NEZ052-066-093-191800-
...KANSAS...SOUTHEAST NEBRASKA AND IOWA...

CITY           SKY/WX    TMP DP  RH WIND       PRES   REMARKS
TOPEKA         MOSUNNY   51  31  46 N7        30.48S
MANHATTAN      SUNNY     48  29  47 NE7       30.48F
EMPORIA        SUNNY     47  27  45 N7G18     30.47S
CHANUTE        SUNNY     51  26  37 N14G21    30.46S
WICHITA        MOSUNNY   52  29  41 N14       30.46R
OMAHA          MOSUNNY   50  29  44 NE6       30.48S
LINCOLN        SUNNY     50  28  42 W3        30.50R
FALLS CITY     SUNNY     52  29  41 NE10      30.47S
LAMONI         SUNNY     48  29  47 N8        30.46R
DES MOINES     MOSUNNY   48  28  46 N5        30.48R

$$





USA.gov is the U.S. government's official web portal to all federal, state and local government web resources and services.